• In Portugal
  • List of Countries
  • For 7 days
  • Water Temperature
  • Satellite Maps
  • Weather Map
  • Weather Widgets
  • user-avatar
    Login

    Hourly Weather Ankara

    Today, 24 February, Saturday

    Time Temperature Precipitation Wind Pressure Humidity
    00:00 +7°C° 0 mm 2 mps 680 mmHg 77%
    01:00 +6°C° 0 mm 2 mps 680 mmHg 80%
    02:00 +7°C° 0 mm 1 mps 679 mmHg 82%
    03:00 +7°C° 0 mm 1 mps 679 mmHg 84%
    04:00 +6°C° 0 mm 1 mps 679 mmHg 86%
    05:00 +6°C° 0 mm 1 mps 679 mmHg 88%
    06:00 +6°C° 0 mm 1 mps 679 mmHg 86%
    07:00 +7°C° 0 mm 1 mps 679 mmHg 84%
    08:00 +8°C° 0 mm 1 mps 679 mmHg 82%
    09:00 +9°C° 0 mm 1 mps 679 mmHg 75%
    10:00 +9°C° 0 mm 2 mps 679 mmHg 67%
    11:00 +12°C° 0 mm 2 mps 679 mmHg 59%
    12:00 +11°C° 0 mm 3 mps 678 mmHg 55%
    13:00 +12°C° 0 mm 3 mps 678 mmHg 50%
    14:00 +13°C° 0 mm 4 mps 678 mmHg 45%
    15:00 +13°C° 0 mm 3 mps 677 mmHg 46%
    16:00 +12°C° 0 mm 3 mps 677 mmHg 48%
    17:00 +12°C° 0 mm 3 mps 677 mmHg 49%
    18:00 +11°C° 0 mm 3 mps 676 mmHg 52%
    19:00 +10°C° 0 mm 3 mps 676 mmHg 54%
    20:00 +10°C° 0 mm 3 mps 675 mmHg 57%
    21:00 +9°C° 0 mm 3 mps 675 mmHg 58%
    22:00 +9°C° 0 mm 3 mps 675 mmHg 60%
    23:00 +9°C° 0 mm 3 mps 674 mmHg 61%

    Tomorrow, 25 February, Sunday

    Time Temperature Precipitation Wind Pressure Humidity
    00:00 +7°C° 1 mm 4 mps 674 mmHg 66%
    01:00 +7°C° 1 mm 4 mps 674 mmHg 72%
    02:00 +6°C° 1 mm 4 mps 674 mmHg 77%
    03:00 +6°C° 0.6 mm 5 mps 674 mmHg 76%
    04:00 +5°C° 0.6 mm 5 mps 674 mmHg 74%
    05:00 +5°C° 0.6 mm 5 mps 674 mmHg 73%
    06:00 +4°C° 0.1 mm 6 mps 675 mmHg 75%
    07:00 +4°C° 0.1 mm 6 mps 675 mmHg 76%
    08:00 +4°C° 0.1 mm 6 mps 675 mmHg 78%
    09:00 +4°C° 0.4 mm 6 mps 676 mmHg 76%
    10:00 +4°C° 0.4 mm 6 mps 676 mmHg 74%
    11:00 +5°C° 0.4 mm 6 mps 677 mmHg 72%
    12:00 +5°C° 0.1 mm 6 mps 677 mmHg 68%
    13:00 +5°C° 0.1 mm 6 mps 677 mmHg 64%
    14:00 +7°C° 0.1 mm 6 mps 677 mmHg 60%
    15:00 +6°C° 0 mm 5 mps 678 mmHg 61%
    16:00 +6°C° 0 mm 5 mps 678 mmHg 61%
    17:00 +5°C° 0 mm 4 mps 678 mmHg 62%
    18:00 +5°C° 0 mm 3 mps 679 mmHg 66%
    19:00 +4°C° 0 mm 3 mps 679 mmHg 70%
    20:00 +4°C° 0 mm 2 mps 679 mmHg 74%
    21:00 +4°C° 0 mm 2 mps 679 mmHg 75%
    22:00 +3°C° 0 mm 2 mps 679 mmHg 76%
    23:00 +3°C° 0 mm 2 mps 680 mmHg 78%

    Day after tomorrow, 26 February, Monday

    Time Temperature Precipitation Wind Pressure Humidity
    00:00 +2°C° 0 mm 2 mps 680 mmHg 79%
    01:00 +3°C° 0 mm 1 mps 680 mmHg 81%
    02:00 +3°C° 0 mm 1 mps 680 mmHg 83%
    03:00 +3°C° 0 mm 1 mps 679 mmHg 84%
    04:00 +1°C° 0 mm 2 mps 679 mmHg 84%
    05:00 +1°C° 0 mm 2 mps 679 mmHg 85%
    06:00 +2°C° 0 mm 2 mps 679 mmHg 83%
    07:00 +1°C° 0 mm 3 mps 679 mmHg 81%
    08:00 +2°C° 0 mm 3 mps 679 mmHg 79%
    09:00 +3°C° 0 mm 3 mps 679 mmHg 74%
    10:00 +4°C° 0 mm 3 mps 679 mmHg 69%
    11:00 +5°C° 0 mm 4 mps 678 mmHg 64%
    12:00 +6°C° 0 mm 4 mps 678 mmHg 62%
    13:00 +7°C° 0 mm 4 mps 677 mmHg 60%
    14:00 +7°C° 0 mm 4 mps 676 mmHg 58%
    15:00 +7°C° 0 mm 4 mps 676 mmHg 58%
    16:00 +7°C° 0 mm 4 mps 676 mmHg 59%
    17:00 +7°C° 0 mm 4 mps 675 mmHg 60%
    18:00 +6°C° 0 mm 4 mps 675 mmHg 64%
    19:00 +5°C° 0 mm 4 mps 675 mmHg 68%
    20:00 +4°C° 0 mm 4 mps 675 mmHg 72%
    21:00 +4°C° 0 mm 4 mps 674 mmHg 74%
    22:00 +4°C° 0 mm 4 mps 674 mmHg 75%
    23:00 +3°C° 0 mm 4 mps 674 mmHg 76%

    27 February, Tuesday

    Time Temperature Precipitation Wind Pressure Humidity
    00:00 +3°C° 0.3 mm 4 mps 674 mmHg 78%
    01:00 +3°C° 0.3 mm 3 mps 674 mmHg 80%
    02:00 +3°C° 0.3 mm 3 mps 674 mmHg 81%
    03:00 +3°C° 0.7 mm 3 mps 674 mmHg 84%
    04:00 +4°C° 0.7 mm 2 mps 674 mmHg 86%
    05:00 +4°C° 0.7 mm 2 mps 674 mmHg 89%
    06:00 +5°C° 0 mm 2 mps 675 mmHg 87%
    07:00 +4°C° 0 mm 3 mps 675 mmHg 85%
    08:00 +5°C° 0 mm 3 mps 676 mmHg 82%
    09:00 +6°C° 0.2 mm 5 mps 676 mmHg 76%
    10:00 +7°C° 0.2 mm 6 mps 676 mmHg 70%
    11:00 +6°C° 0.2 mm 7 mps 677 mmHg 63%
    12:00 +7°C° 0.1 mm 8 mps 677 mmHg 62%
    13:00 +7°C° 0.1 mm 8 mps 677 mmHg 60%
    14:00 +9°C° 0.1 mm 8 mps 677 mmHg 59%
    15:00 +8°C° 0 mm 7 mps 678 mmHg 59%
    16:00 +8°C° 0 mm 6 mps 678 mmHg 59%
    17:00 +7°C° 0 mm 5 mps 679 mmHg 59%
    18:00 +6°C° 0 mm 4 mps 680 mmHg 64%
    19:00 +5°C° 0 mm 3 mps 680 mmHg 68%
    20:00 +5°C° 0 mm 2 mps 681 mmHg 73%
    21:00 +5°C° 0 mm 2 mps 681 mmHg 74%
    22:00 +5°C° 0 mm 1 mps 681 mmHg 76%
    23:00 +5°C° 0 mm 1 mps 682 mmHg 77%

    28 February, Wednesday

    Time Temperature Precipitation Wind Pressure Humidity
    00:00 +4°C° 0 mm 1 mps 682 mmHg 78%
    01:00 +4°C° 0 mm 1 mps 682 mmHg 79%
    02:00 +4°C° 0 mm 1 mps 682 mmHg 80%
    03:00 +4°C° 0 mm 1 mps 682 mmHg 79%
    04:00 +4°C° 0 mm 1 mps 682 mmHg 78%
    05:00 +4°C° 0 mm 1 mps 682 mmHg 78%
    06:00 +5°C° 0 mm 1 mps 682 mmHg 74%
    07:00 +4°C° 0 mm 2 mps 683 mmHg 71%
    08:00 +5°C° 0 mm 2 mps 683 mmHg 67%
    09:00 +7°C° 0 mm 3 mps 683 mmHg 61%
    10:00 +9°C° 0 mm 3 mps 683 mmHg 55%
    11:00 +10°C° 0 mm 4 mps 682 mmHg 50%
    12:00 +11°C° 0 mm 4 mps 682 mmHg 47%
    13:00 +12°C° 0 mm 4 mps 682 mmHg 44%
    14:00 +13°C° 0 mm 4 mps 682 mmHg 41%
    15:00 +12°C° 0 mm 4 mps 682 mmHg 43%
    16:00 +12°C° 0 mm 3 mps 681 mmHg 46%
    17:00 +12°C° 0 mm 2 mps 681 mmHg 49%
    18:00 +10°C° 0 mm 2 mps 682 mmHg 52%
    19:00 +10°C° 0 mm 2 mps 682 mmHg 54%
    20:00 +9°C° 0 mm 2 mps 682 mmHg 57%
    21:00 +8°C° 0 mm 2 mps 682 mmHg 58%
    22:00 +8°C° 0 mm 2 mps 682 mmHg 60%
    23:00 +8°C° 0 mm 2 mps 683 mmHg 61%

    1 March, Thursday

    Time Temperature Precipitation Wind Pressure Humidity
    00:00 +7°C° 0 mm 2 mps 683 mmHg 62%
    01:00 +7°C° 0 mm 2 mps 683 mmHg 64%
    02:00 +7°C° 0 mm 2 mps 684 mmHg 65%
    03:00 +7°C° 0.1 mm 2 mps 684 mmHg 68%
    04:00 +7°C° 0.1 mm 2 mps 684 mmHg 72%
    05:00 +6°C° 0.1 mm 2 mps 685 mmHg 75%
    06:00 +7°C° 0 mm 2 mps 685 mmHg 75%
    07:00 +7°C° 0 mm 2 mps 686 mmHg 76%
    08:00 +7°C° 0 mm 2 mps 686 mmHg 76%
    09:00 +8°C° 0 mm 2 mps 687 mmHg 71%
    10:00 +10°C° 0 mm 2 mps 687 mmHg 65%
    11:00 +12°C° 0 mm 2 mps 687 mmHg 60%
    12:00 +12°C° 0 mm 2 mps 687 mmHg 56%
    13:00 +12°C° 0 mm 3 mps 687 mmHg 52%
    14:00 +13°C° 0 mm 3 mps 687 mmHg 48%
    15:00 +13°C° 0 mm 3 mps 687 mmHg 49%
    16:00 +13°C° 0 mm 2 mps 687 mmHg 50%
    17:00 +13°C° 0 mm 2 mps 687 mmHg 51%
    18:00 +12°C° 0 mm 1 mps 687 mmHg 56%
    19:00 +11°C° 0 mm 1 mps 687 mmHg 60%
    20:00 +10°C° 0 mm 1 mps 687 mmHg 64%
    21:00 +9°C° 0 mm 1 mps 687 mmHg 66%
    22:00 +9°C° 0 mm 1 mps 687 mmHg 67%
    23:00 +8°C° 0 mm 1 mps 687 mmHg 68%
    Show more